Time,TemperatureF,DewpointF,PressureIn,WindDirection,WindDirectionDegrees,WindSpeedMPH,WindSpeedGustMPH,Humidity,HourlyPrecipIn,Conditions,Clouds,dailyrainin,SoftwareType,DateUTC
2013-07-16 00:01:00,76.9,69.5,30.11,SSE,156,0.0,0.0,78,0.00,,CLR,0.00,VWS V14.01,2013-07-16 05:01:00,
2013-07-16 00:06:00,76.7,69.3,30.10,SSE,156,0.0,1.0,78,0.00,,CLR,0.00,VWS V14.01,2013-07-16 05:06:00,
2013-07-16 00:11:00,76.6,69.6,30.10,SSE,156,1.0,1.0,79,0.00,,CLR,0.00,VWS V14.01,2013-07-16 05:11:00,
2013-07-16 00:16:00,76.6,69.6,30.10,SSE,156,0.0,1.0,79,0.00,,CLR,0.00,VWS V14.01,2013-07-16 05:16:00,
2013-07-16 00:21:00,76.6,69.6,30.10,SSE,157,1.0,1.0,79,0.00,,CLR,0.00,VWS V14.01,2013-07-16 05:21:00,
2013-07-16 00:26:00,76.5,69.5,30.10,SSE,156,0.0,1.0,79,0.00,,CLR,0.00,VWS V14.01,2013-07-16 05:26:00,
2013-07-16 00:31:00,76.4,69.8,30.10,SSE,156,0.0,0.0,80,0.00,,CLR,0.00,VWS V14.01,2013-07-16 05:31:00,
2013-07-16 00:36:00,76.4,69.8,30.10,SSE,153,1.0,1.0,80,0.00,,CLR,0.00,VWS V14.01,2013-07-16 05:36:00,
2013-07-16 00:41:00,76.4,69.8,30.10,SE,135,0.0,1.0,80,0.00,,CLR,0.00,VWS V14.01,2013-07-16 05:41:00,
2013-07-16 00:46:00,76.3,69.7,30.10,SE,136,0.0,1.0,80,0.00,,CLR,0.00,VWS V14.01,2013-07-16 05:46:00,
2013-07-16 00:51:00,76.1,69.8,30.10,SSE,148,0.0,1.0,81,0.00,,CLR,0.00,VWS V14.01,2013-07-16 05:51:00,
2013-07-16 00:56:00,75.9,69.7,30.10,SE,143,0.0,1.0,81,0.00,,CLR,0.00,VWS V14.01,2013-07-16 05:56:00,
2013-07-16 01:01:00,75.8,69.9,30.10,SSE,149,0.0,1.0,82,0.00,,CLR,0.00,VWS V14.01,2013-07-16 06:01:00,
2013-07-16 01:06:00,75.8,69.9,30.10,South,172,1.0,2.0,82,0.00,,CLR,0.00,VWS V14.01,2013-07-16 06:06:00,
2013-07-16 01:11:00,75.7,70.2,30.10,SSE,160,1.0,3.0,83,0.00,,CLR,0.00,VWS V14.01,2013-07-16 06:11:00,
2013-07-16 01:16:00,75.7,70.2,30.10,South,186,1.0,3.0,83,0.00,,CLR,0.00,VWS V14.01,2013-07-16 06:16:00,
2013-07-16 01:21:00,75.8,70.3,30.10,South,172,0.0,3.0,83,0.00,,CLR,0.00,VWS V14.01,2013-07-16 06:21:00,
2013-07-16 01:26:00,75.8,70.3,30.10,South,176,1.0,3.0,83,0.00,,CLR,0.00,VWS V14.01,2013-07-16 06:26:00,
2013-07-16 01:31:00,75.8,70.3,30.10,SSE,151,1.0,2.0,83,0.00,,CLR,0.00,VWS V14.01,2013-07-16 06:31:00,
2013-07-16 01:36:00,75.8,70.6,30.10,South,173,1.0,4.0,84,0.00,,CLR,0.00,VWS V14.01,2013-07-16 06:36:00,
2013-07-16 01:41:00,75.9,70.7,30.10,SSE,162,2.0,4.0,84,0.00,,CLR,0.00,VWS V14.01,2013-07-16 06:41:00,
2013-07-16 01:46:00,75.9,70.7,30.10,SSE,167,1.0,4.0,84,0.00,,CLR,0.00,VWS V14.01,2013-07-16 06:46:00,
2013-07-16 01:51:00,75.9,70.7,30.10,SSE,160,1.0,4.0,84,0.00,,SCT055,0.00,VWS V14.01,2013-07-16 06:51:00,
2013-07-16 01:56:00,75.8,70.6,30.10,SSE,156,0.0,4.0,84,0.00,,CLR,0.00,VWS V14.01,2013-07-16 06:56:00,
2013-07-16 02:01:00,75.8,70.6,30.10,SSE,160,0.0,3.0,84,0.00,,SCT055,0.00,VWS V14.01,2013-07-16 07:01:00,
2013-07-16 02:06:00,75.7,70.5,30.10,SSW,200,1.0,3.0,84,0.00,,SCT055,0.00,VWS V14.01,2013-07-16 07:06:00,
2013-07-16 02:11:00,75.7,70.9,30.10,SSE,163,1.0,3.0,85,0.00,,SCT055,0.00,VWS V14.01,2013-07-16 07:11:00,
2013-07-16 02:16:00,75.6,70.8,30.10,SSE,163,0.0,3.0,85,0.00,,CLR,0.00,VWS V14.01,2013-07-16 07:16:00,
2013-07-16 02:21:00,75.6,70.8,30.10,SSE,150,2.0,3.0,85,0.00,,SCT055,0.00,VWS V14.01,2013-07-16 07:21:00,
2013-07-16 02:26:00,75.5,70.7,30.10,SSE,163,1.0,3.0,85,0.00,,SCT055,0.00,VWS V14.01,2013-07-16 07:26:00,
2013-07-16 02:31:00,75.4,70.9,30.10,SE,145,1.0,2.0,86,0.00,,SCT055,0.00,VWS V14.01,2013-07-16 07:31:00,
2013-07-16 02:36:00,75.3,70.8,30.10,SSE,155,1.0,2.0,86,0.00,,SCT055,0.00,VWS V14.01,2013-07-16 07:36:00,
2013-07-16 02:41:00,75.3,70.8,30.09,SSE,163,1.0,2.0,86,0.00,,SCT055,0.00,VWS V14.01,2013-07-16 07:41:00,
2013-07-16 02:46:00,75.3,71.2,30.09,South,170,1.0,3.0,87,0.00,,SCT055,0.00,VWS V14.01,2013-07-16 07:46:00,
2013-07-16 02:51:00,75.3,71.2,30.09,SSE,161,2.0,3.0,87,0.00,,SCT050,0.00,VWS V14.01,2013-07-16 07:51:00,
2013-07-16 02:56:00,75.3,71.2,30.10,SSE,156,1.0,3.0,87,0.00,,SCT055,0.00,VWS V14.01,2013-07-16 07:56:00,
2013-07-16 03:01:00,75.4,71.3,30.09,South,174,0.0,3.0,87,0.00,,SCT050,0.00,VWS V14.01,2013-07-16 08:01:00,
2013-07-16 03:06:00,75.3,71.2,30.09,South,186,2.0,3.0,87,0.00,,SCT050,0.00,VWS V14.01,2013-07-16 08:06:00,
2013-07-16 03:11:00,75.3,71.2,30.09,South,187,1.0,3.0,87,0.00,,SCT050,0.00,VWS V14.01,2013-07-16 08:11:00,
2013-07-16 03:16:00,75.3,71.2,30.09,SSW,202,1.0,3.0,87,0.00,,SCT050,0.00,VWS V14.01,2013-07-16 08:16:00,
2013-07-16 03:21:00,75.3,71.5,30.09,SSW,204,1.0,3.0,88,0.00,,SCT050,0.00,VWS V14.01,2013-07-16 08:21:00,
2013-07-16 03:26:00,75.3,71.5,30.09,SSW,212,2.0,3.0,88,0.00,,SCT050,0.00,VWS V14.01,2013-07-16 08:26:00,
2013-07-16 03:31:00,75.2,71.4,30.09,SE,139,2.0,2.0,88,0.00,,SCT050,0.00,VWS V14.01,2013-07-16 08:31:00,
2013-07-16 03:36:00,75.3,71.5,30.09,SSE,162,2.0,3.0,88,0.00,,CLR,0.00,VWS V14.01,2013-07-16 08:36:00,
2013-07-16 03:41:00,75.3,71.5,30.09,SSW,206,1.0,3.0,88,0.00,,CLR,0.00,VWS V14.01,2013-07-16 08:41:00,
2013-07-16 03:46:00,75.2,71.4,30.09,SSE,153,1.0,3.0,88,0.00,,CLR,0.00,VWS V14.01,2013-07-16 08:46:00,
2013-07-16 03:51:00,75.2,71.7,30.09,SW,232,1.0,3.0,89,0.00,,CLR,0.00,VWS V14.01,2013-07-16 08:51:00,
2013-07-16 03:56:00,75.1,71.6,30.09,SSW,207,1.0,3.0,89,0.00,,CLR,0.00,VWS V14.01,2013-07-16 08:56:00,
2013-07-16 04:01:00,75.1,71.6,30.09,South,174,1.0,2.0,89,0.00,,CLR,0.00,VWS V14.01,2013-07-16 09:01:00,
2013-07-16 04:06:00,75.0,71.5,30.09,South,179,2.0,2.0,89,0.00,,CLR,0.00,VWS V14.01,2013-07-16 09:06:00,
2013-07-16 04:11:00,75.0,71.5,30.09,SW,215,1.0,3.0,89,0.00,,CLR,0.00,VWS V14.01,2013-07-16 09:11:00,
2013-07-16 04:16:00,75.0,71.5,30.09,SSW,197,1.0,3.0,89,0.00,,CLR,0.00,VWS V14.01,2013-07-16 09:16:00,
2013-07-16 04:21:00,74.9,71.4,30.09,SSW,193,1.0,3.0,89,0.00,,CLR,0.00,VWS V14.01,2013-07-16 09:21:00,
2013-07-16 04:26:00,74.9,71.4,30.09,SSW,197,2.0,4.0,89,0.00,,CLR,0.00,VWS V14.01,2013-07-16 09:26:00,
2013-07-16 04:31:00,74.9,71.8,30.09,SSW,203,1.0,3.0,90,0.00,,CLR,0.00,VWS V14.01,2013-07-16 09:31:00,
2013-07-16 04:36:00,74.8,71.7,30.09,SSW,194,1.0,3.0,90,0.00,,CLR,0.00,VWS V14.01,2013-07-16 09:36:00,
2013-07-16 04:41:00,74.7,71.6,30.09,SSW,197,2.0,3.0,90,0.00,,CLR,0.00,VWS V14.01,2013-07-16 09:41:00,
2013-07-16 04:46:00,74.7,71.6,30.09,SSW,212,2.0,4.0,90,0.00,,CLR,0.00,VWS V14.01,2013-07-16 09:46:00,
2013-07-16 04:51:00,74.7,71.6,30.09,SSW,195,2.0,4.0,90,0.00,,CLR,0.00,VWS V14.01,2013-07-16 09:51:00,
2013-07-16 04:56:00,74.6,71.5,30.09,SSW,210,1.0,4.0,90,0.00,,CLR,0.00,VWS V14.01,2013-07-16 09:56:00,
2013-07-16 05:01:00,74.6,71.5,30.09,South,181,2.0,2.0,90,0.00,,CLR,0.00,VWS V14.01,2013-07-16 10:01:00,
2013-07-16 05:06:00,74.5,71.7,30.09,SSW,210,1.0,3.0,91,0.00,,CLR,0.00,VWS V14.01,2013-07-16 10:06:00,
2013-07-16 05:11:00,74.5,71.7,30.09,South,172,2.0,3.0,91,0.00,,CLR,0.00,VWS V14.01,2013-07-16 10:11:00,
2013-07-16 05:16:00,74.4,71.6,30.09,SSW,193,1.0,3.0,91,0.00,,CLR,0.00,VWS V14.01,2013-07-16 10:16:00,
2013-07-16 05:21:00,74.3,71.5,30.09,SSW,197,0.0,3.0,91,0.00,,CLR,0.00,VWS V14.01,2013-07-16 10:21:00,
2013-07-16 05:26:00,74.2,71.4,30.09,SSE,158,1.0,3.0,91,0.00,,CLR,0.00,VWS V14.01,2013-07-16 10:26:00,
2013-07-16 05:31:00,74.1,71.3,30.09,SSW,206,1.0,2.0,91,0.00,,CLR,0.00,VWS V14.01,2013-07-16 10:31:00,
2013-07-16 05:36:00,74.0,71.2,30.09,SSW,207,0.0,2.0,91,0.00,,CLR,0.00,VWS V14.01,2013-07-16 10:36:00,
2013-07-16 05:40:00,73.9,71.4,30.09,SSW,206,1.0,2.0,92,0.00,,CLR,0.00,VWS V14.01,2013-07-16 10:40:00,
2013-07-16 05:45:00,73.8,71.3,30.09,SSW,203,1.0,3.0,92,0.00,,CLR,0.00,VWS V14.01,2013-07-16 10:45:00,
2013-07-16 05:50:00,73.8,71.3,30.10,SSE,160,1.0,3.0,92,0.00,,CLR,0.00,VWS V14.01,2013-07-16 10:50:00,
2013-07-16 05:55:00,73.8,71.3,30.10,SSW,210,2.0,3.0,92,0.00,,CLR,0.00,VWS V14.01,2013-07-16 10:55:00,
2013-07-16 06:00:00,73.8,71.3,30.10,SSW,203,2.0,2.0,92,0.00,,CLR,0.00,VWS V14.01,2013-07-16 11:00:00,
2013-07-16 06:05:00,73.9,71.4,30.10,South,190,2.0,3.0,92,0.00,,CLR,0.00,VWS V14.01,2013-07-16 11:05:00,
2013-07-16 06:10:00,74.1,71.6,30.10,SSW,204,1.0,3.0,92,0.00,,CLR,0.00,VWS V14.01,2013-07-16 11:10:00,
2013-07-16 06:15:00,74.2,71.7,30.10,SSW,211,1.0,3.0,92,0.00,,CLR,0.00,VWS V14.01,2013-07-16 11:15:00,
2013-07-16 06:20:00,74.2,71.7,30.10,SSW,203,2.0,3.0,92,0.00,,CLR,0.00,VWS V14.01,2013-07-16 11:20:00,
2013-07-16 06:25:00,74.3,71.8,30.10,South,172,1.0,3.0,92,0.00,,CLR,0.00,VWS V14.01,2013-07-16 11:25:00,
2013-07-16 06:30:00,74.5,71.7,30.10,SW,218,2.0,2.0,91,0.00,,CLR,0.00,VWS V14.01,2013-07-16 11:30:00,
2013-07-16 06:35:00,74.7,71.9,30.10,South,191,2.0,2.0,91,0.00,,CLR,0.00,VWS V14.01,2013-07-16 11:35:00,
2013-07-16 06:40:00,74.9,72.1,30.11,SSW,210,0.0,2.0,91,0.00,,CLR,0.00,VWS V14.01,2013-07-16 11:40:00,
2013-07-16 06:45:00,75.1,72.0,30.11,SSW,203,2.0,3.0,90,0.00,,CLR,0.00,VWS V14.01,2013-07-16 11:45:00,
2013-07-16 06:50:00,75.4,72.3,30.11,SSW,201,2.0,3.0,90,0.00,,CLR,0.00,VWS V14.01,2013-07-16 11:50:00,
2013-07-16 06:55:00,75.6,72.5,30.11,SSW,210,3.0,4.0,90,0.00,,CLR,0.00,VWS V14.01,2013-07-16 11:55:00,
2013-07-16 07:00:00,75.7,72.2,30.11,South,191,2.0,4.0,89,0.00,,CLR,0.00,VWS V14.01,2013-07-16 12:00:00,
2013-07-16 07:05:00,75.8,72.3,30.11,SW,217,2.0,4.0,89,0.00,,CLR,0.00,VWS V14.01,2013-07-16 12:05:00,
2013-07-16 07:10:00,76.0,72.5,30.11,SSW,201,2.0,4.0,89,0.00,,CLR,0.00,VWS V14.01,2013-07-16 12:10:00,
2013-07-16 07:15:00,76.2,72.7,30.11,SSW,204,2.0,4.0,89,0.00,,CLR,0.00,VWS V14.01,2013-07-16 12:15:00,
2013-07-16 07:20:00,76.4,72.6,30.11,SSW,210,2.0,4.0,88,0.00,,CLR,0.00,VWS V14.01,2013-07-16 12:20:00,
2013-07-16 07:25:00,76.7,72.9,30.11,SSW,210,2.0,4.0,88,0.00,,CLR,0.00,VWS V14.01,2013-07-16 12:25:00,
2013-07-16 07:30:00,76.9,73.1,30.11,SW,222,1.0,3.0,88,0.00,,CLR,0.00,VWS V14.01,2013-07-16 12:30:00,
2013-07-16 07:35:00,77.3,73.1,30.11,SW,226,2.0,3.0,87,0.00,,CLR,0.00,VWS V14.01,2013-07-16 12:35:00,
2013-07-16 07:40:00,77.6,73.4,30.11,SW,236,3.0,3.0,87,0.00,,CLR,0.00,VWS V14.01,2013-07-16 12:40:00,
2013-07-16 07:45:00,77.9,73.4,30.11,WSW,255,1.0,3.0,86,0.00,,CLR,0.00,VWS V14.01,2013-07-16 12:45:00,
2013-07-16 07:50:00,78.1,73.6,30.12,West,273,4.0,4.0,86,0.00,,CLR,0.00,VWS V14.01,2013-07-16 12:50:00,
2013-07-16 07:55:00,78.4,73.5,30.12,WSW,250,1.0,4.0,85,0.00,,CLR,0.00,VWS V14.01,2013-07-16 12:55:00,
2013-07-16 08:00:00,78.6,73.7,30.12,West,259,3.0,4.0,85,0.00,,CLR,0.00,VWS V14.01,2013-07-16 13:00:00,
2013-07-16 08:05:00,78.8,73.9,30.12,WSW,255,0.0,4.0,85,0.00,,CLR,0.00,VWS V14.01,2013-07-16 13:05:00,
2013-07-16 08:10:00,79.1,73.8,30.12,WNW,297,3.0,4.0,84,0.00,,CLR,0.00,VWS V14.01,2013-07-16 13:10:00,
2013-07-16 08:15:00,79.3,74.1,30.12,SW,232,2.0,4.0,84,0.00,,CLR,0.00,VWS V14.01,2013-07-16 13:15:00,
2013-07-16 08:20:00,79.6,74.0,30.12,SSW,203,1.0,4.0,83,0.00,,CLR,0.00,VWS V14.01,2013-07-16 13:20:00,
2013-07-16 08:25:00,79.9,74.3,30.12,WNW,290,4.0,4.0,83,0.00,,CLR,0.00,VWS V14.01,2013-07-16 13:25:00,
2013-07-16 08:30:00,79.9,73.6,30.12,WSW,249,2.0,5.0,81,0.00,,CLR,0.00,VWS V14.01,2013-07-16 13:30:00,
2013-07-16 08:35:00,80.2,74.2,30.12,SW,221,1.0,5.0,82,0.00,,CLR,0.00,VWS V14.01,2013-07-16 13:35:00,
2013-07-16 08:40:00,80.6,74.6,30.12,WSW,249,2.0,5.0,82,0.00,,CLR,0.00,VWS V14.01,2013-07-16 13:40:00,
2013-07-16 08:45:00,80.8,74.4,30.12,WSW,239,1.0,5.0,81,0.00,,CLR,0.00,VWS V14.01,2013-07-16 13:45:00,
2013-07-16 08:50:00,81.1,75.1,30.12,West,260,1.0,5.0,82,0.00,,CLR,0.00,VWS V14.01,2013-07-16 13:50:00,
2013-07-16 08:55:00,81.3,74.5,30.12,SSE,148,7.0,7.0,80,0.00,,CLR,0.00,VWS V14.01,2013-07-16 13:55:00,
2013-07-16 09:00:00,81.3,74.2,30.12,WSW,256,3.0,5.0,79,0.00,,CLR,0.00,VWS V14.01,2013-07-16 14:00:00,
2013-07-16 09:05:00,81.6,74.5,30.12,WSW,250,2.0,5.0,79,0.00,,CLR,0.00,VWS V14.01,2013-07-16 14:05:00,
2013-07-16 09:10:00,81.9,74.4,30.12,West,264,2.0,5.0,78,0.00,,CLR,0.00,VWS V14.01,2013-07-16 14:10:00,
2013-07-16 09:15:00,81.9,74.0,30.12,West,260,2.0,7.0,77,0.00,,CLR,0.00,VWS V14.01,2013-07-16 14:15:00,
2013-07-16 09:20:00,82.0,73.7,30.12,SW,235,3.0,7.0,76,0.00,,CLR,0.00,VWS V14.01,2013-07-16 14:20:00,
2013-07-16 09:25:00,82.3,74.0,30.12,West,269,1.0,7.0,76,0.00,,CLR,0.00,VWS V14.01,2013-07-16 14:25:00,
2013-07-16 09:30:00,82.6,74.7,30.12,WSW,252,2.0,6.0,77,0.00,,CLR,0.00,VWS V14.01,2013-07-16 14:30:00,
2013-07-16 09:35:00,82.9,74.2,30.12,West,269,5.0,6.0,75,0.00,,CLR,0.00,VWS V14.01,2013-07-16 14:35:00,
2013-07-16 09:40:00,83.2,74.5,30.12,WSW,245,2.0,6.0,75,0.00,,CLR,0.00,VWS V14.01,2013-07-16 14:40:00,
2013-07-16 09:45:00,83.4,74.2,30.11,SW,226,4.0,6.0,74,0.00,,CLR,0.00,VWS V14.01,2013-07-16 14:45:00,
2013-07-16 09:50:00,83.6,74.4,30.11,West,265,2.0,6.0,74,0.00,,CLR,0.00,VWS V14.01,2013-07-16 14:50:00,
2013-07-16 09:55:00,83.8,74.2,30.11,SW,235,1.0,10.0,73,0.00,,CLR,0.00,VWS V14.01,2013-07-16 14:55:00,
2013-07-16 10:00:00,84.1,74.1,30.11,WSW,255,5.0,7.0,72,0.00,,CLR,0.00,VWS V14.01,2013-07-16 15:00:00,
2013-07-16 10:05:00,84.1,73.7,30.11,WNW,285,8.0,8.0,71,0.00,,CLR,0.00,VWS V14.01,2013-07-16 15:05:00,
2013-07-16 10:10:00,84.2,74.2,30.11,West,276,3.0,9.0,72,0.00,,CLR,0.00,VWS V14.01,2013-07-16 15:10:00,
2013-07-16 10:15:00,84.5,73.7,30.11,WSW,252,10.0,10.0,70,0.00,,CLR,0.00,VWS V14.01,2013-07-16 15:15:00,
2013-07-16 10:20:00,84.6,74.2,30.11,SSW,201,1.0,13.0,71,0.00,,CLR,0.00,VWS V14.01,2013-07-16 15:20:00,
2013-07-16 10:25:00,84.9,73.6,30.11,West,274,2.0,13.0,69,0.00,,CLR,0.00,VWS V14.01,2013-07-16 15:25:00,
2013-07-16 10:30:00,85.0,73.7,30.11,WSW,253,2.0,9.0,69,0.00,,CLR,0.00,VWS V14.01,2013-07-16 15:30:00,
2013-07-16 10:35:00,85.4,74.5,30.11,West,276,3.0,9.0,70,0.00,,CLR,0.00,VWS V14.01,2013-07-16 15:35:00,
2013-07-16 10:40:00,85.5,73.3,30.11,WSW,241,5.0,9.0,67,0.00,,CLR,0.00,VWS V14.01,2013-07-16 15:40:00,
2013-07-16 10:45:00,85.7,74.4,30.11,WNW,296,3.0,9.0,69,0.00,,CLR,0.00,VWS V14.01,2013-07-16 15:45:00,
2013-07-16 10:50:00,85.9,74.1,30.11,South,183,3.0,10.0,68,0.00,,CLR,0.00,VWS V14.01,2013-07-16 15:50:00,
2013-07-16 10:55:00,85.6,72.9,30.12,West,262,4.0,10.0,66,0.00,,CLR,0.00,VWS V14.01,2013-07-16 15:55:00,
2013-07-16 11:00:00,85.5,73.7,30.12,West,276,8.0,9.0,68,0.00,,CLR,0.00,VWS V14.01,2013-07-16 16:00:00,
2013-07-16 11:05:00,84.9,72.3,30.12,West,281,7.0,16.0,66,0.00,,CLR,0.00,VWS V14.01,2013-07-16 16:05:00,
2013-07-16 11:10:00,85.0,72.8,30.11,West,264,6.0,16.0,67,0.00,,CLR,0.00,VWS V14.01,2013-07-16 16:10:00,
2013-07-16 11:15:00,85.3,74.0,30.11,WSW,255,7.0,16.0,69,0.00,,CLR,0.00,VWS V14.01,2013-07-16 16:15:00,
2013-07-16 11:20:00,85.5,73.3,30.11,WSW,240,5.0,16.0,67,0.00,,CLR,0.00,VWS V14.01,2013-07-16 16:20:00,
2013-07-16 11:25:00,85.5,73.7,30.11,West,266,3.0,16.0,68,0.00,,CLR,0.00,VWS V14.01,2013-07-16 16:25:00,
2013-07-16 11:30:00,86.3,74.1,30.11,SW,232,1.0,5.0,67,0.00,,CLR,0.00,VWS V14.01,2013-07-16 16:30:00,
2013-07-16 11:35:00,86.7,73.5,30.11,SSW,207,3.0,6.0,65,0.00,,SCT035,0.00,VWS V14.01,2013-07-16 16:35:00,
2013-07-16 11:40:00,87.0,73.8,30.11,SW,225,3.0,8.0,65,0.00,,SCT035,0.00,VWS V14.01,2013-07-16 16:40:00,
2013-07-16 11:45:00,87.0,73.4,30.12,SW,229,5.0,11.0,64,0.00,,SCT035,0.00,VWS V14.01,2013-07-16 16:45:00,
2013-07-16 11:50:00,86.7,73.5,30.11,SW,232,3.0,11.0,65,0.00,,BKN041,0.00,VWS V14.01,2013-07-16 16:50:00,
2013-07-16 11:55:00,86.7,73.1,30.11,West,278,8.0,11.0,64,0.00,,BKN041,0.00,VWS V14.01,2013-07-16 16:55:00,
2013-07-16 12:00:00,86.5,73.3,30.11,West,267,7.0,11.0,65,0.00,,BKN041,0.00,VWS V14.01,2013-07-16 17:00:00,
2013-07-16 12:05:00,86.4,72.8,30.11,WSW,240,8.0,11.0,64,0.00,,BKN041,0.00,VWS V14.01,2013-07-16 17:05:00,
2013-07-16 12:10:00,86.5,73.3,30.11,West,265,5.0,13.0,65,0.00,,BKN041,0.00,VWS V14.01,2013-07-16 17:10:00,
2013-07-16 12:15:00,87.1,72.5,30.11,West,276,3.0,13.0,62,0.00,,BKN041,0.00,VWS V14.01,2013-07-16 17:15:00,
2013-07-16 12:20:00,87.4,72.3,30.11,West,278,3.0,13.0,61,0.00,,BKN041,0.00,VWS V14.01,2013-07-16 17:20:00,
2013-07-16 12:25:00,87.5,73.4,30.11,WNW,285,5.0,13.0,63,0.00,,BKN041,0.00,VWS V14.01,2013-07-16 17:25:00,
2013-07-16 12:30:00,87.8,71.7,30.11,WNW,287,3.0,5.0,59,0.00,,BKN041,0.00,VWS V14.01,2013-07-16 17:30:00,
2013-07-16 12:35:00,88.2,72.6,30.11,SW,222,3.0,8.0,60,0.00,,SCT044,0.00,VWS V14.01,2013-07-16 17:35:00,
2013-07-16 12:40:00,88.4,73.2,30.11,WSW,243,4.0,8.0,61,0.00,,SCT044,0.00,VWS V14.01,2013-07-16 17:40:00,
2013-07-16 12:45:00,88.5,72.8,30.11,WSW,253,3.0,8.0,60,0.00,,SCT044,0.00,VWS V14.01,2013-07-16 17:45:00,
2013-07-16 12:50:00,88.7,73.0,30.11,West,266,3.0,13.0,60,0.00,,SCT037,0.00,VWS V14.01,2013-07-16 17:50:00,
2013-07-16 12:55:00,87.9,72.3,30.11,WSW,256,5.0,13.0,60,0.00,,SCT037,0.00,VWS V14.01,2013-07-16 17:55:00,
2013-07-16 13:00:00,86.9,71.8,30.11,West,280,4.0,6.0,61,0.00,,SCT037,0.00,VWS V14.01,2013-07-16 18:00:00,
2013-07-16 13:05:00,86.9,72.3,30.11,West,260,4.0,8.0,62,0.00,,SCT037,0.00,VWS V14.01,2013-07-16 18:05:00,
2013-07-16 13:10:00,86.5,72.4,30.11,WSW,253,8.0,12.0,63,0.00,,SCT037,0.00,VWS V14.01,2013-07-16 18:10:00,
2013-07-16 13:15:00,86.6,72.5,30.11,West,269,8.0,12.0,63,0.00,,SCT037,0.00,VWS V14.01,2013-07-16 18:15:00,
2013-07-16 13:20:00,86.9,71.8,30.11,West,269,4.0,14.0,61,0.00,,SCT037,0.00,VWS V14.01,2013-07-16 18:20:00,
2013-07-16 13:25:00,87.2,72.1,30.11,West,276,3.0,14.0,61,0.00,,SCT037,0.00,VWS V14.01,2013-07-16 18:25:00,
2013-07-16 13:30:00,87.7,71.6,30.11,West,274,5.0,6.0,59,0.00,,SCT037,0.00,VWS V14.01,2013-07-16 18:30:00,
2013-07-16 13:35:00,87.8,72.7,30.11,WSW,238,2.0,10.0,61,0.00,,SCT043,0.00,VWS V14.01,2013-07-16 18:35:00,
2013-07-16 13:40:00,88.2,72.1,30.10,WNW,285,4.0,10.0,59,0.00,,SCT043,0.00,VWS V14.01,2013-07-16 18:40:00,
2013-07-16 13:45:00,88.3,71.7,30.10,West,267,3.0,10.0,58,0.00,,SCT043,0.00,VWS V14.01,2013-07-16 18:45:00,
2013-07-16 13:50:00,88.3,72.7,30.10,WNW,284,9.0,11.0,60,0.00,,SCT050,0.00,VWS V14.01,2013-07-16 18:50:00,
2013-07-16 13:55:00,87.8,72.7,30.10,WSW,238,3.0,11.0,61,0.00,,SCT050,0.00,VWS V14.01,2013-07-16 18:55:00,
2013-07-16 14:00:00,87.7,71.6,30.10,WSW,257,1.0,9.0,59,0.00,,SCT050,0.00,VWS V14.01,2013-07-16 19:00:00,
2013-07-16 14:05:00,88.1,72.0,30.10,West,281,4.0,9.0,59,0.00,,SCT043,0.00,VWS V14.01,2013-07-16 19:05:00,
2013-07-16 14:10:00,87.7,72.1,30.10,SW,229,7.0,11.0,60,0.00,,SCT050,0.00,VWS V14.01,2013-07-16 19:10:00,
2013-07-16 14:15:00,87.7,71.1,30.10,West,261,3.0,12.0,58,0.00,,SCT050,0.00,VWS V14.01,2013-07-16 19:15:00,
2013-07-16 14:20:00,87.8,73.2,30.10,WNW,284,5.0,12.0,62,0.00,,SCT050,0.00,VWS V14.01,2013-07-16 19:20:00,
2013-07-16 14:25:00,87.4,72.8,30.10,WNW,285,4.0,12.0,62,0.00,,SCT050,0.00,VWS V14.01,2013-07-16 19:25:00,
2013-07-16 14:30:00,88.1,72.0,30.10,West,260,2.0,4.0,59,0.00,,SCT050,0.00,VWS V14.01,2013-07-16 19:30:00,
2013-07-16 14:35:00,88.4,73.2,30.10,West,277,3.0,8.0,61,0.00,,SCT050,0.00,VWS V14.01,2013-07-16 19:35:00,
2013-07-16 14:40:00,88.2,72.6,30.10,WSW,256,7.0,11.0,60,0.00,,SCT050,0.00,VWS V14.01,2013-07-16 19:40:00,
2013-07-16 14:45:00,87.8,72.2,30.10,WNW,290,3.0,11.0,60,0.00,,SCT050,0.00,VWS V14.01,2013-07-16 19:45:00,
2013-07-16 14:50:00,88.3,74.1,30.10,West,262,4.0,11.0,63,0.00,,SCT043,0.00,VWS V14.01,2013-07-16 19:50:00,
2013-07-16 14:55:00,88.3,72.7,30.10,SW,218,3.0,11.0,60,0.00,,SCT043,0.00,VWS V14.01,2013-07-16 19:55:00,
2013-07-16 15:00:00,88.2,73.6,30.10,West,260,1.0,11.0,62,0.00,,SCT043,0.00,VWS V14.01,2013-07-16 20:00:00,
2013-07-16 15:05:00,88.4,72.8,30.10,West,270,2.0,11.0,60,0.00,,SCT050,0.00,VWS V14.01,2013-07-16 20:05:00,
2013-07-16 15:10:00,88.3,72.7,30.10,WSW,253,4.0,11.0,60,0.00,,SCT043,0.00,VWS V14.01,2013-07-16 20:10:00,
2013-07-16 15:15:00,88.4,73.2,30.10,WSW,249,2.0,11.0,61,0.00,,SCT043,0.00,VWS V14.01,2013-07-16 20:15:00,
2013-07-16 15:20:00,88.6,72.4,30.10,WNW,288,7.0,12.0,59,0.00,,SCT043,0.00,VWS V14.01,2013-07-16 20:20:00,
2013-07-16 15:25:00,88.3,72.7,30.10,West,259,3.0,12.0,60,0.00,,SCT043,0.00,VWS V14.01,2013-07-16 20:25:00,
2013-07-16 15:30:00,88.9,73.2,30.10,WSW,256,4.0,11.0,60,0.00,,SCT043,0.00,VWS V14.01,2013-07-16 20:30:00,
2013-07-16 15:35:00,88.8,72.1,30.10,West,278,4.0,11.0,58,0.00,,SCT055,0.00,VWS V14.01,2013-07-16 20:35:00,
2013-07-16 15:40:00,88.7,73.0,30.10,WSW,240,3.0,11.0,60,0.00,,SCT055,0.00,VWS V14.01,2013-07-16 20:40:00,
2013-07-16 15:45:00,89.2,73.5,30.10,West,260,3.0,11.0,60,0.00,,SCT055,0.00,VWS V14.01,2013-07-16 20:45:00,
2013-07-16 15:50:00,89.4,74.2,30.09,West,269,2.0,11.0,61,0.00,,SCT055,0.00,VWS V14.01,2013-07-16 20:50:00,
2013-07-16 15:55:00,89.7,73.0,30.09,West,278,7.0,11.0,58,0.00,,SCT055,0.00,VWS V14.01,2013-07-16 20:55:00,
2013-07-16 16:00:00,89.9,73.7,30.09,WNW,284,1.0,6.0,59,0.00,,SCT055,0.00,VWS V14.01,2013-07-16 21:00:00,
2013-07-16 16:05:00,90.0,73.2,30.09,WSW,249,2.0,8.0,58,0.00,,SCT055,0.00,VWS V14.01,2013-07-16 21:05:00,
2013-07-16 16:10:00,90.0,73.2,30.09,West,268,3.0,8.0,58,0.00,,SCT055,0.00,VWS V14.01,2013-07-16 21:10:00,
2013-07-16 16:15:00,90.2,72.4,30.09,WSW,249,4.0,8.0,56,0.00,,SCT055,0.00,VWS V14.01,2013-07-16 21:15:00,
2013-07-16 16:20:00,90.3,74.0,30.09,West,274,3.0,8.0,59,0.00,,SCT055,0.00,VWS V14.01,2013-07-16 21:20:00,
2013-07-16 16:25:00,90.2,72.9,30.09,WNW,291,3.0,10.0,57,0.00,,SCT055,0.00,VWS V14.01,2013-07-16 21:25:00,
2013-07-16 16:30:00,90.0,73.2,30.09,West,262,1.0,4.0,58,0.00,,SCT055,0.00,VWS V14.01,2013-07-16 21:30:00,
2013-07-16 16:35:00,89.9,73.2,30.09,WSW,240,5.0,7.0,58,0.00,,SCT055,0.00,VWS V14.01,2013-07-16 21:35:00,
2013-07-16 16:40:00,89.5,72.3,30.09,West,267,5.0,7.0,57,0.00,,SCT055,0.00,VWS V14.01,2013-07-16 21:40:00,
2013-07-16 16:45:00,89.0,72.3,30.09,West,267,2.0,7.0,58,0.00,,SCT055,0.00,VWS V14.01,2013-07-16 21:45:00,
2013-07-16 16:50:00,89.3,72.6,30.09,West,276,3.0,7.0,58,0.00,,SCT070,0.00,VWS V14.01,2013-07-16 21:50:00,
2013-07-16 16:55:00,89.7,73.0,30.09,WSW,245,3.0,7.0,58,0.00,,SCT070,0.00,VWS V14.01,2013-07-16 21:55:00,
2013-07-16 17:00:00,90.0,73.2,30.09,West,274,2.0,4.0,58,0.00,,SCT070,0.00,VWS V14.01,2013-07-16 22:00:00,
2013-07-16 17:05:00,89.3,72.1,30.09,West,281,4.0,11.0,57,0.00,,SCT070,0.00,VWS V14.01,2013-07-16 22:05:00,
2013-07-16 17:10:00,89.5,73.3,30.09,West,262,1.0,11.0,59,0.00,,SCT070,0.00,VWS V14.01,2013-07-16 22:10:00,
2013-07-16 17:15:00,89.4,72.7,30.09,West,263,2.0,11.0,58,0.00,,SCT070,0.00,VWS V14.01,2013-07-16 22:15:00,
2013-07-16 17:20:00,89.7,73.5,30.09,WSW,248,2.0,11.0,59,0.00,,SCT070,0.00,VWS V14.01,2013-07-16 22:20:00,
2013-07-16 17:25:00,89.3,73.6,30.09,WSW,243,2.0,11.0,60,0.00,,SCT070,0.00,VWS V14.01,2013-07-16 22:25:00,
2013-07-16 17:30:00,89.7,73.5,30.08,SW,233,4.0,5.0,59,0.00,,SCT070,0.00,VWS V14.01,2013-07-16 22:30:00,
2013-07-16 17:35:00,90.0,73.8,30.08,WSW,252,3.0,5.0,59,0.00,,CLR,0.00,VWS V14.01,2013-07-16 22:35:00,
2013-07-16 17:40:00,90.0,73.8,30.08,WSW,240,2.0,8.0,59,0.00,,CLR,0.00,VWS V14.01,2013-07-16 22:40:00,
2013-07-16 17:45:00,89.6,72.9,30.08,SW,235,3.0,8.0,58,0.00,,CLR,0.00,VWS V14.01,2013-07-16 22:45:00,
2013-07-16 17:50:00,89.6,72.4,30.08,SW,231,2.0,9.0,57,0.00,,CLR,0.00,VWS V14.01,2013-07-16 22:50:00,
2013-07-16 17:55:00,89.9,72.6,30.08,WSW,253,3.0,9.0,57,0.00,,CLR,0.00,VWS V14.01,2013-07-16 22:55:00,
2013-07-16 18:00:00,89.8,71.5,30.08,WSW,253,5.0,8.0,55,0.00,,CLR,0.00,VWS V14.01,2013-07-16 23:00:00,
2013-07-16 18:05:00,89.7,71.4,30.08,West,274,1.0,9.0,55,0.00,,CLR,0.00,VWS V14.01,2013-07-16 23:05:00,
2013-07-16 18:10:00,89.9,71.0,30.08,SW,229,2.0,9.0,54,0.00,,CLR,0.00,VWS V14.01,2013-07-16 23:10:00,
2013-07-16 18:15:00,90.1,72.3,30.08,WNW,301,3.0,9.0,56,0.00,,CLR,0.00,VWS V14.01,2013-07-16 23:15:00,
2013-07-16 18:20:00,89.8,71.5,30.08,West,265,2.0,9.0,55,0.00,,CLR,0.00,VWS V14.01,2013-07-16 23:20:00,
2013-07-16 18:25:00,89.7,71.4,30.08,SW,219,7.0,9.0,55,0.00,,CLR,0.00,VWS V14.01,2013-07-16 23:25:00,
2013-07-16 18:30:00,89.6,71.8,30.08,West,260,3.0,4.0,56,0.00,,CLR,0.00,VWS V14.01,2013-07-16 23:30:00,
2013-07-16 18:35:00,89.7,72.4,30.08,West,261,1.0,4.0,57,0.00,,SCT050,0.00,VWS V14.01,2013-07-16 23:35:00,
2013-07-16 18:40:00,89.6,71.8,30.08,WSW,257,2.0,8.0,56,0.00,,SCT050,0.00,VWS V14.01,2013-07-16 23:40:00,
2013-07-16 18:45:00,89.5,72.3,30.08,West,281,3.0,8.0,57,0.00,,SCT050,0.00,VWS V14.01,2013-07-16 23:45:00,
2013-07-16 18:50:00,89.4,72.2,30.08,West,274,2.0,8.0,57,0.00,,CLR,0.00,VWS V14.01,2013-07-16 23:50:00,
2013-07-16 18:55:00,89.3,72.6,30.08,WSW,240,2.0,8.0,58,0.00,,CLR,0.00,VWS V14.01,2013-07-16 23:55:00,
2013-07-16 19:00:00,89.2,72.5,30.08,WSW,249,2.0,4.0,58,0.00,,CLR,0.00,VWS V14.01,2013-07-17 00:00:00,
2013-07-16 19:05:00,89.1,72.9,30.08,West,266,2.0,4.0,59,0.00,,CLR,0.00,VWS V14.01,2013-07-17 00:05:00,
2013-07-16 19:10:00,89.0,72.8,30.08,West,264,1.0,4.0,59,0.00,,CLR,0.00,VWS V14.01,2013-07-17 00:10:00,
2013-07-16 19:15:00,88.9,72.7,30.08,West,264,1.0,4.0,59,0.00,,CLR,0.00,VWS V14.01,2013-07-17 00:15:00,
2013-07-16 19:20:00,88.8,72.6,30.08,West,262,1.0,5.0,59,0.00,,CLR,0.00,VWS V14.01,2013-07-17 00:20:00,
2013-07-16 19:25:00,88.7,73.0,30.08,WSW,250,1.0,5.0,60,0.00,,CLR,0.00,VWS V14.01,2013-07-17 00:25:00,
2013-07-16 19:30:00,88.6,72.9,30.08,West,273,1.0,2.0,60,0.00,,CLR,0.00,VWS V14.01,2013-07-17 00:30:00,
2013-07-16 19:35:00,88.4,72.8,30.08,WSW,248,0.0,3.0,60,0.00,,CLR,0.00,VWS V14.01,2013-07-17 00:35:00,
2013-07-16 19:40:00,88.2,73.1,30.08,West,273,1.0,4.0,61,0.00,,CLR,0.00,VWS V14.01,2013-07-17 00:40:00,
2013-07-16 19:45:00,88.1,73.0,30.08,West,266,1.0,4.0,61,0.00,,CLR,0.00,VWS V14.01,2013-07-17 00:45:00,
2013-07-16 19:50:00,87.9,73.3,30.08,West,276,2.0,4.0,62,0.00,,CLR,0.00,VWS V14.01,2013-07-17 00:50:00,
2013-07-16 19:55:00,87.7,73.1,30.08,WSW,253,1.0,4.0,62,0.00,,CLR,0.00,VWS V14.01,2013-07-17 00:55:00,
2013-07-16 20:00:00,87.5,73.4,30.08,WSW,241,2.0,2.0,63,0.00,,CLR,0.00,VWS V14.01,2013-07-17 01:00:00,
2013-07-16 20:05:00,86.8,72.7,30.08,SW,231,1.0,2.0,63,0.00,,CLR,0.00,VWS V14.01,2013-07-17 01:05:00,
2013-07-16 20:10:00,86.3,72.7,30.08,West,265,0.0,2.0,64,0.00,,CLR,0.00,VWS V14.01,2013-07-17 01:10:00,
2013-07-16 20:15:00,85.7,73.0,30.08,SW,235,1.0,2.0,66,0.00,,CLR,0.00,VWS V14.01,2013-07-17 01:15:00,
2013-07-16 20:20:00,85.2,72.6,30.08,West,281,0.0,2.0,66,0.00,,CLR,0.00,VWS V14.01,2013-07-17 01:20:00,
2013-07-16 20:25:00,84.8,72.6,30.08,WSW,256,0.0,2.0,67,0.00,,CLR,0.00,VWS V14.01,2013-07-17 01:25:00,
2013-07-16 20:30:00,84.4,72.7,30.08,WSW,250,0.0,1.0,68,0.00,,CLR,0.00,VWS V14.01,2013-07-17 01:30:00,
2013-07-16 20:35:00,84.0,72.3,30.08,WSW,245,1.0,1.0,68,0.00,,CLR,0.00,VWS V14.01,2013-07-17 01:35:00,
2013-07-16 20:40:00,83.8,72.6,30.08,WSW,245,1.0,1.0,69,0.00,,CLR,0.00,VWS V14.01,2013-07-17 01:40:00,
2013-07-16 20:45:00,83.7,72.5,30.08,WSW,241,0.0,2.0,69,0.00,,CLR,0.00,VWS V14.01,2013-07-17 01:45:00,
2013-07-16 20:50:00,83.5,72.3,30.08,WSW,240,0.0,2.0,69,0.00,,CLR,0.00,VWS V14.01,2013-07-17 01:50:00,
2013-07-16 20:55:00,83.2,72.4,30.08,WSW,240,0.0,2.0,70,0.00,,CLR,0.00,VWS V14.01,2013-07-17 01:55:00,
2013-07-16 21:00:00,83.0,72.2,30.09,WSW,243,0.0,0.0,70,0.00,,CLR,0.00,VWS V14.01,2013-07-17 02:00:00,
2013-07-16 21:05:00,82.8,72.4,30.09,West,276,0.0,1.0,71,0.00,,CLR,0.00,VWS V14.01,2013-07-17 02:05:00,
2013-07-16 21:10:00,82.7,72.3,30.09,West,273,0.0,1.0,71,0.00,,CLR,0.00,VWS V14.01,2013-07-17 02:10:00,
2013-07-16 21:15:00,82.4,72.5,30.09,West,273,0.0,1.0,72,0.00,,CLR,0.00,VWS V14.01,2013-07-17 02:15:00,
2013-07-16 21:20:00,82.1,72.2,30.10,West,273,0.0,1.0,72,0.00,,CLR,0.00,VWS V14.01,2013-07-17 02:20:00,
2013-07-16 21:25:00,82.0,72.5,30.10,West,273,0.0,1.0,73,0.00,,CLR,0.00,VWS V14.01,2013-07-17 02:25:00,
2013-07-16 21:30:00,81.9,72.4,30.10,West,273,0.0,0.0,73,0.00,,CLR,0.00,VWS V14.01,2013-07-17 02:30:00,
2013-07-16 21:35:00,81.8,72.3,30.11,West,273,0.0,0.0,73,0.00,,CLR,0.00,VWS V14.01,2013-07-17 02:35:00,
2013-07-16 21:40:00,81.7,72.6,30.11,West,273,0.0,0.0,74,0.00,,CLR,0.00,VWS V14.01,2013-07-17 02:40:00,
2013-07-16 21:45:00,81.4,72.3,30.11,West,273,0.0,0.0,74,0.00,,CLR,0.00,VWS V14.01,2013-07-17 02:45:00,
2013-07-16 21:50:00,81.2,72.1,30.11,West,273,0.0,0.0,74,0.00,,CLR,0.00,VWS V14.01,2013-07-17 02:50:00,
2013-07-16 21:55:00,81.0,72.3,30.11,West,273,0.0,0.0,75,0.00,,CLR,0.00,VWS V14.01,2013-07-17 02:55:00,
2013-07-16 22:00:00,80.7,72.0,30.11,West,273,0.0,0.0,75,0.00,,CLR,0.00,VWS V14.01,2013-07-17 03:00:00,
2013-07-16 22:05:00,80.5,72.2,30.11,West,273,0.0,0.0,76,0.00,,CLR,0.00,VWS V14.01,2013-07-17 03:05:00,
2013-07-16 22:10:00,80.3,72.4,30.11,West,273,0.0,0.0,77,0.00,,CLR,0.00,VWS V14.01,2013-07-17 03:10:00,
2013-07-16 22:15:00,80.1,72.2,30.12,West,273,0.0,0.0,77,0.00,,CLR,0.00,VWS V14.01,2013-07-17 03:15:00,
2013-07-16 22:20:00,79.9,72.4,30.12,West,273,0.0,0.0,78,0.00,,CLR,0.00,VWS V14.01,2013-07-17 03:20:00,
2013-07-16 22:25:00,79.8,72.3,30.12,West,273,0.0,0.0,78,0.00,,CLR,0.00,VWS V14.01,2013-07-17 03:25:00,
2013-07-16 22:30:00,79.6,72.5,30.12,West,273,0.0,0.0,79,0.00,,CLR,0.00,VWS V14.01,2013-07-17 03:30:00,
2013-07-16 22:35:00,79.5,72.4,30.11,West,274,0.0,0.0,79,0.00,,CLR,0.00,VWS V14.01,2013-07-17 03:35:00,
2013-07-16 22:40:00,79.3,72.6,30.11,West,273,0.0,0.0,80,0.00,,CLR,0.00,VWS V14.01,2013-07-17 03:40:00,
2013-07-16 22:45:00,79.2,72.5,30.11,West,273,0.0,0.0,80,0.00,,CLR,0.00,VWS V14.01,2013-07-17 03:45:00,
2013-07-16 22:50:00,79.2,72.5,30.12,West,273,0.0,0.0,80,0.00,,CLR,0.00,VWS V14.01,2013-07-17 03:50:00,
2013-07-16 22:55:00,79.0,72.3,30.12,West,273,0.0,0.0,80,0.00,,CLR,0.00,VWS V14.01,2013-07-17 03:55:00,
2013-07-16 23:00:00,78.8,72.5,30.12,West,273,0.0,0.0,81,0.00,,CLR,0.00,VWS V14.01,2013-07-17 04:00:00,
2013-07-16 23:01:00,78.8,72.5,30.12,West,273,0.0,0.0,81,0.00,,CLR,0.00,VWS V14.01,2013-07-17 04:01:00,
2013-07-16 23:06:00,78.7,72.4,30.12,West,273,0.0,0.0,81,0.00,,CLR,0.00,VWS V14.01,2013-07-17 04:06:00,
2013-07-16 23:11:00,78.6,72.3,30.12,West,273,0.0,0.0,81,0.00,,CLR,0.00,VWS V14.01,2013-07-17 04:11:00,
2013-07-16 23:16:00,78.6,72.3,30.12,West,273,0.0,1.0,81,0.00,,CLR,0.00,VWS V14.01,2013-07-17 04:16:00,
2013-07-16 23:21:00,78.4,72.4,30.12,West,273,0.0,1.0,82,0.00,,CLR,0.00,VWS V14.01,2013-07-17 04:21:00,
2013-07-16 23:26:00,78.1,72.2,30.12,West,273,0.0,1.0,82,0.00,,CLR,0.00,VWS V14.01,2013-07-17 04:26:00,
2013-07-16 23:31:00,77.9,72.3,30.12,West,273,0.0,1.0,83,0.00,,CLR,0.00,VWS V14.01,2013-07-17 04:31:00,
2013-07-16 23:36:00,77.9,72.3,30.12,West,273,0.0,1.0,83,0.00,,CLR,0.00,VWS V14.01,2013-07-17 04:36:00,
2013-07-16 23:41:00,77.9,72.3,30.12,West,267,0.0,1.0,83,0.00,,CLR,0.00,VWS V14.01,2013-07-17 04:41:00,
2013-07-16 23:46:00,77.8,72.2,30.12,West,266,0.0,1.0,83,0.00,,CLR,0.00,VWS V14.01,2013-07-17 04:46:00,
2013-07-16 23:51:00,77.7,72.1,30.12,West,267,0.0,1.0,83,0.00,,CLR,0.00,VWS V14.01,2013-07-17 04:51:00,
2013-07-16 23:55:00,77.5,71.9,30.12,West,267,0.0,1.0,83,0.00,,CLR,0.00,VWS V14.01,2013-07-17 04:55:00,
2013-07-16 23:59:00,77.4,72.2,30.12,West,267,0.0,0.0,84,0.00,,CLR,0.00,VWS V14.01,2013-07-17 04:59:00,